{"data":{"norad_id":57256,"intl_designator":"2023-094AQ","name":"STARLINK-5512","alt_names":[],"object_type":"PAYLOAD","status":"ACTIVE","operator":null,"country":"US","launch_date":"2023-07-07","launch_site_code":"AFWTR","launch_vehicle":null,"mission":null,"orbit_class":"UNKNOWN","rcs_meters":null,"size_class":null,"mass_kg":null,"dimensions":null,"purposes":["comms"],"wikipedia_slug":null,"has_3d_model":false,"image_url":null,"decayed_at":null,"tle_current":{"epoch":"2026-05-25T03:38:18.213216Z","epoch_age_seconds":65462,"freshness":"FRESH","line1":"1 57256U 23094AQ  26145.15159969  .00004318  00000+0  16640-3 0  9991","line2":"2 57256  43.0034 308.0973 0001287 277.5369  82.5337 15.27567822158937","mean_motion":15.27567822,"eccentricity":0.0001287,"inclination_deg":43.0034,"raan_deg":308.0973,"arg_perigee_deg":277.5369,"mean_anomaly_deg":82.5337,"bstar":0.0001664,"rev_number":15893,"period_min":94.267500222324,"perigee_km":482.20252225124,"apogee_km":483.9686009386,"semimajor_km":6861.2225615949,"source":"CELESTRAK","updated_at":"2026-05-25T13:38:18.279845Z"}}}